EW4155 Weather Reports


time (UTC)temp
F
wind
direction
speed
knots
gust
knots
rain 1hr
in
rain 24hr
in
rain mn
in
humidity
%
barometer
mb
20260505193013 85 212 4.3 10.4 0.00 0.00 0.00 70 1005.3
20260505192508 85 210 4.3 10.4 0.00 0.00 0.00 70 1005.3
20260505192006 85 95 2.6 9.6 0.00 0.00 0.00 71 1005.3
20260505191520 85 214 2.6 10.4 0.00 0.00 0.00 71 1005.4
20260505191011 85 214 3.5 10.4 0.00 0.00 0.00 72 1005.4
20260505190506 84 194 5.2 10.4 0.00 0.00 0.00 71 1005.5
20260505190022 84 293 3.5 11.3 0.00 0.00 0.00 72 1005.6
20260505185510 84 219 4.3 11.3 0.00 0.00 0.00 72 1005.6
20260505185012 84 171 4.3 9.6 0.00 0.00 0.00 73 1005.6
20260505184527 83 232 3.5 12.2 0.00 0.00 0.00 73 1005.7
20260505184012 83 166 6.1 12.2 0.00 0.00 0.00 71 1005.7
20260505183511 83 139 3.5 12.2 0.00 0.00 0.00 72 1005.8
20260505183027 83 187 6.1 12.2 0.00 0.00 0.00 72 1005.9
20260505182517 83 229 3.5 10.4 0.00 0.00 0.00 72 1005.9
20260505182007 83 196 3.5 11.3 0.00 0.00 0.00 73 1005.9
20260505181514 82 146 4.3 13.9 0.00 0.00 0.00 73 1006.0
20260505181009 82 252 4.3 13.9 0.00 0.00 0.00 73 1005.9
20260505180508 82 209 6.1 15.6 0.00 0.00 0.00 72 1006.0
20260505180037 82 125 6.1 15.6 0.00 0.00 0.00 74 1005.9
20260505175509 82 307 4.3 12.2 0.00 0.00 0.00 75 1005.8
20260505175008 81 233 1.7 13.9 0.00 0.00 0.00 77 1005.9
20260505174545 80 252 6.1 13.9 0.00 0.00 0.00 75 1005.8
20260505174009 81 176 7.0 13.9 0.00 0.00 0.00 74 1005.8
20260505173508 81 188 3.5 11.3 0.00 0.00 0.00 75 1005.8
20260505173032 81 187 5.2 11.3 0.00 0.00 0.00 75 1005.9
20260505172511 81 146 3.5 12.2 0.00 0.00 0.00 76 1005.9
20260505172012 81 165 4.3 12.2 0.00 0.00 0.00 76 1005.8
20260505171526 80 237 1.7 10.4 0.00 0.00 0.00 78 1005.9
20260505171011 79 187 0.9 12.2 0.00 0.00 0.00 79 1005.8
20260505170505 79 214 5.2 12.2 0.00 0.00 0.00 78 1005.7
20260505170018 79 189 6.1 12.2 0.00 0.00 0.00 78 1005.7
20260505165509 79 173 5.2 12.2 0.00 0.00 0.00 78 1005.7
20260505165009 79 183 6.1 12.2 0.00 0.00 0.00 78 1005.7
20260505164522 79 146 5.2 13.0 0.00 0.00 0.00 78 1005.8
20260505164008 79 217 3.5 13.0 0.00 0.00 0.00 78 1005.8
20260505163510 78 199 4.3 11.3 0.00 0.00 0.00 78 1005.9
20260505163025 78 202 6.1 12.2 0.00 0.00 0.00 78 1006.0
20260505162508 78 205 4.3 12.2 0.00 0.00 0.00 79 1006.0
20260505162010 78 212 6.1 12.2 0.00 0.00 0.00 79 1006.0
20260505161528 77 196 5.2 17.4 0.00 0.00 0.00 80 1005.9
20260505161009 77 211 6.1 17.4 0.00 0.00 0.00 79 1005.9
20260505160508 77 156 7.8 17.4 0.00 0.00 0.00 79 1005.8
20260505153006 75 174 7.0 13.9 0.00 0.00 0.00 82 1005.7
20260505152505 75 230 5.2 13.9 0.00 0.00 0.00 82 1005.8
20260505152007 75 95 5.2 16.5 0.00 0.00 0.00 82 1005.9
20260505151512 75 185 7.0 16.5 0.00 0.00 0.00 82 1006.1
20260505151009 75 200 6.1 13.0 0.00 0.00 0.00 82 1006.1
20260505150510 75 198 5.2 13.0 0.00 0.00 0.00 82 1006.2
20260505140504 74 202 7.0 13.9 0.00 0.00 0.00 84 1005.5
20260505125004 70 221 5.2 13.9 0.00 0.00 0.00 89 1005.2
20260505124512 70 162 3.5 11.3 0.00 0.00 0.00 90 1005.1
20260505124008 70 216 4.3 11.3 0.00 0.00 0.00 90 1005.1
20260505123507 70 211 3.5 12.2 0.00 0.00 0.00 90 1005.1
20260505123017 70 196 2.6 12.2 0.00 0.00 0.00 90 1005.2
20260505122507 70 176 2.6 11.3 0.00 0.00 0.00 90 1005.0
20260505122008 69 195 3.5 13.0 0.00 0.00 0.00 90 1005.0
20260505121522 69 216 5.2 13.0 0.00 0.00 0.00 90 1004.8
20260505121009 69 250 4.3 10.4 0.00 0.00 0.00 90 1004.8
20260505120508 69 30 4.3 10.4 0.00 0.00 0.00 90 1004.8
20260505120031 69 213 4.3 12.2 0.00 0.00 0.00 90 1004.9
20260505115505 69 229 5.2 12.2 0.00 0.00 0.00 90 1004.9
20260505115005 69 228 5.2 11.3 0.00 0.00 0.00 90 1004.8
20260505114510 69 256 5.2 13.0 0.00 0.00 0.00 90 1004.8
20260505114007 69 246 5.2 13.0 0.00 0.00 0.00 90 1004.6
20260505113510 69 231 4.3 9.6 0.00 0.00 0.00 90 1004.8
20260505113019 69 165 2.6 12.2 0.00 0.00 0.00 90 1004.7
20260505112507 69 188 6.1 13.9 0.00 0.00 0.00 90 1004.6
20260505112008 69 263 7.0 13.9 0.00 0.00 0.00 90 1004.6
20260505111519 69 197 4.3 13.0 0.00 0.00 0.00 90 1004.6
20260505111010 69 157 4.3 13.0 0.00 0.00 0.00 90 1004.5
20260505110507 69 203 4.3 12.2 0.00 0.00 0.00 90 1004.5
20260505102009 69 210 6.1 13.0 0.00 0.00 0.00 89 1004.5
20260505101530 69 225 7.0 12.2 0.00 0.00 0.00 89 1004.6
20260505101006 69 211 4.3 12.2 0.00 0.00 0.00 89 1004.6
20260505100508 69 208 4.3 14.8 0.00 0.00 0.00 89 1004.5
20260505100023 70 136 4.3 14.8 0.00 0.00 0.00 89 1004.3
20260505095508 70 222 4.3 14.8 0.00 0.00 0.00 89 1004.5
20260505095014 70 275 5.2 14.8 0.00 0.00 0.00 89 1004.6
20260505094526 70 190 5.2 14.8 0.00 0.00 0.00 89 1004.6
20260505094008 70 212 4.3 14.8 0.00 0.00 0.00 89 1004.8
20260505093509 70 198 4.3 15.6 0.00 0.00 0.00 89 1004.8
20260505093035 70 233 5.2 15.6 0.00 0.00 0.00 89 1004.8
20260505092509 70 241 7.0 14.8 0.00 0.00 0.00 89 1004.9
20260505092004 70 191 6.1 12.2 0.00 0.00 0.00 89 1004.7
20260505091518 70 243 6.1 12.2 0.00 0.00 0.00 89 1004.8
20260505091007 70 243 5.2 12.2 0.00 0.00 0.00 89 1004.9
20260505090508 69 146 6.1 13.0 0.00 0.00 0.00 89 1004.7
20260505090023 69 221 4.3 13.0 0.00 0.00 0.00 89 1004.8
20260505085511 69 240 7.0 13.0 0.00 0.00 0.00 89 1004.8
20260505085009 69 188 6.1 13.9 0.00 0.00 0.00 89 1004.7
20260505084524 69 155 7.0 15.6 0.00 0.00 0.00 89 1004.8
20260505084008 69 209 4.3 15.6 0.00 0.00 0.00 89 1004.7
20260505083513 69 202 6.1 14.8 0.00 0.00 0.00 89 1004.6
20260505083027 69 237 6.1 13.9 0.00 0.00 0.00 89 1004.6
20260505082510 69 238 4.3 15.6 0.00 0.00 0.00 89 1005.0
20260505082009 69 212 7.0 15.6 0.00 0.00 0.00 89 1004.9
20260505081530 69 190 4.3 13.9 0.00 0.00 0.00 89 1005.0
20260505081005 69 186 7.0 13.9 0.00 0.00 0.00 89 1004.8
20260505080504 69 191 7.0 13.0 0.00 0.00 0.00 89 1004.9
20260505080015 69 214 5.2 13.0 0.00 0.00 0.00 89 1005.2
20260505075504 69 226 6.1 13.0 0.00 0.00 0.00 89 1005.3
20260505075008 69 217 5.2 13.9 0.00 0.00 0.00 89 1005.2
20260505074522 69 221 7.8 13.9 0.00 0.00 0.00 89 1005.2
20260505074009 69 218 3.5 13.9 0.00 0.00 0.00 89 1005.3
20260505073508 69 204 5.2 13.9 0.00 0.00 0.00 89 1005.4
20260505073027 69 223 5.2 14.8 0.00 0.00 0.00 88 1005.5
20260505072512 69 183 5.2 14.8 0.00 0.00 0.00 88 1005.5
20260505072008 69 226 4.3 13.0 0.00 0.00 0.00 88 1005.6
20260505071526 70 191 5.2 13.9 0.00 0.00 0.00 88 1005.8
20260505071008 70 232 5.2 13.9 0.00 0.00 0.00 87 1005.8
20260505070511 70 212 6.1 11.3 0.00 0.00 0.00 87 1005.9
20260505070026 70 203 5.2 15.6 0.00 0.00 0.00 87 1005.9
20260505065505 70 191 6.1 15.6 0.00 0.00 0.00 87 1006.0
20260505065008 70 218 5.2 12.2 0.00 0.00 0.00 86 1006.1
20260505064522 70 191 6.1 13.9 0.00 0.00 0.00 86 1006.2
20260505064001 70 206 4.3 14.8 0.00 0.00 0.00 86 1006.2
20260505063502 71 217 5.2 15.6 0.00 0.00 0.00 85 1006.1
20260505063006 71 204 7.8 15.6 0.00 0.00 0.00 85 1006.1
20260505062504 71 191 3.5 13.9 0.00 0.00 0.00 85 1006.2
20260505062009 71 134 5.2 13.9 0.00 0.00 0.00 85 1006.2
20260505061510 71 156 6.1 13.9 0.00 0.00 0.00 85 1006.1
20260505061006 71 183 4.3 11.3 0.00 0.00 0.00 84 1006.1
20260505060505 71 205 5.2 12.2 0.00 0.00 0.00 84 1006.2
20260505060015 71 168 5.2 15.6 0.00 0.00 0.00 84 1006.2
20260505055506 71 233 7.0 15.6 0.00 0.00 0.00 84 1006.2
20260505055009 71 100 4.3 14.8 0.00 0.00 0.00 83 1006.1
20260505054518 72 203 7.0 14.8 0.00 0.00 0.00 83 1006.1
20260505054011 72 225 4.3 12.2 0.00 0.00 0.00 83 1006.2
20260505053508 72 182 4.3 14.8 0.00 0.00 0.00 82 1006.2
20260505053020 72 219 4.3 14.8 0.00 0.00 0.00 82 1006.4
20260505052501 72 231 6.1 13.9 0.00 0.00 0.00 82 1006.5
20260505052004 72 191 6.1 14.8 0.00 0.00 0.00 82 1006.5
20260505051518 72 139 7.0 14.8 0.00 0.00 0.00 81 1006.6
20260505051005 72 266 3.5 16.5 0.00 0.00 0.00 81 1006.6
20260505050509 72 190 6.1 16.5 0.00 0.00 0.00 81 1006.7
20260505041527 72 160 4.3 13.0 0.00 0.00 0.00 79 1006.8
20260505041003 72 172 4.3 13.0 0.00 0.00 0.00 79 1006.9
20260505040506 72 174 5.2 10.4 0.00 0.00 0.00 79 1006.7
20260505040010 72 213 2.6 10.4 0.00 0.00 0.00 79 1006.8
20260505035505 72 165 3.5 11.3 0.00 0.00 0.00 79 1006.9
20260505035004 72 158 4.3 11.3 0.00 0.00 0.00 79 1006.8
20260505034515 72 116 4.3 9.6 0.00 0.00 0.00 80 1006.7
20260505034004 72 204 2.6 7.0 0.00 0.00 0.00 80 1006.7
20260505033508 72 195 0.9 7.8 0.00 0.00 0.00 80 1006.8
20260505033019 72 205 1.7 9.6 0.00 0.00 0.00 79 1006.8
20260505032507 72 212 2.6 9.6 0.00 0.00 0.00 79 1006.8
20260505032007 72 121 1.7 9.6 0.00 0.00 0.00 79 1006.8
20260505031523 72 244 1.7 8.7 0.00 0.00 0.00 80 1006.9
20260505031007 72 84 1.7 8.7 0.00 0.00 0.00 79 1007.0
20260505030508 72 155 1.7 6.1 0.00 0.00 0.00 79 1007.0
20260505030024 72 113 1.7 7.0 0.00 0.00 0.00 79 1007.1
20260505025505 72 185 1.7 7.0 0.00 0.00 0.00 79 1006.8
20260505025006 72 142 1.7 7.8 0.00 0.00 0.00 79 1006.9
20260505024512 73 162 2.6 7.8 0.00 0.00 0.00 79 1006.9
20260505024007 73 177 0.9 7.0 0.00 0.00 0.00 78 1006.9
20260505023504 73 180 1.7 7.0 0.00 0.00 0.00 78 1006.7
20260505023016 73 148 1.7 7.0 0.00 0.00 0.00 78 1006.7
20260505022506 73 30 2.6 7.0 0.00 0.00 0.00 78 1006.7
20260505022010 73 202 1.7 7.8 0.00 0.00 0.00 78 1006.7
20260505021518 73 167 0.9 7.8 0.00 0.00 0.00 77 1006.7
20260505021005 73 201 0.9 7.0 0.00 0.00 0.00 77 1006.7
20260505020505 73 93 1.7 5.2 0.00 0.00 0.00 77 1006.7
20260505020023 73 150 0.9 8.7 0.00 0.00 0.00 77 1006.5
20260505015512 73 244 1.7 8.7 0.00 0.00 0.00 76 1006.6
20260505015012 74 65 2.6 6.1 0.00 0.00 0.00 76 1006.6
20260505014508 74 157 1.7 9.6 0.00 0.00 0.00 76 1006.6
20260505014007 74 133 0.9 9.6 0.00 0.00 0.00 75 1006.6
20260505013503 74 95 3.5 9.6 0.00 0.00 0.00 75 1006.6
20260505013012 74 195 2.6 7.0 0.00 0.00 0.00 75 1006.5
20260505012506 74 91 0.9 11.3 0.00 0.00 0.00 74 1006.6
20260505012009 74 231 2.6 11.3 0.00 0.00 0.00 74 1006.6
20260505011517 74 186 2.6 10.4 0.00 0.00 0.00 74 1006.4
20260505011006 74 115 3.5 8.7 0.00 0.00 0.00 74 1006.5
20260505010508 75 219 1.7 9.6 0.00 0.00 0.00 74 1006.5
20260505010019 75 144 1.7 9.6 0.00 0.00 0.00 73 1006.5
20260505005508 75 215 3.5 9.6 0.00 0.00 0.00 73 1006.6
20260505005008 75 174 2.6 8.7 0.00 0.00 0.00 73 1006.6
20260505004526 75 201 1.7 11.3 0.00 0.00 0.00 72 1006.6
20260505004008 76 185 3.5 11.3 0.00 0.00 0.00 72 1006.6
20260505003511 76 155 4.3 9.6 0.00 0.00 0.00 72 1006.6
20260505003018 76 229 1.7 7.8 0.00 0.00 0.00 71 1006.8
20260505002508 76 134 3.5 10.4 0.00 0.00 0.00 71 1006.9
20260505002004 76 130 4.3 11.3 0.00 0.00 0.00 70 1006.8
20260505001514 76 224 4.3 11.3 0.00 0.00 0.00 70 1006.9
20260505001004 77 149 2.6 10.4 0.00 0.00 0.00 70 1007.0
20260505000507 77 219 3.5 13.9 0.00 0.00 0.00 69 1007.0
20260505000018 77 120 2.6 13.9 0.00 0.00 0.00 69 1007.0
20260504235505 77 203 4.3 9.6 0.00 0.00 0.00 69 1007.0
20260504235009 77 198 3.5 9.6 0.00 0.00 0.00 69 1007.0
20260504234523 78 143 3.5 13.9 0.00 0.00 0.00 68 1007.1
20260504234008 78 199 3.5 13.9 0.00 0.00 0.00 68 1007.1
20260504233508 78 155 5.2 12.2 0.00 0.00 0.00 68 1007.2
20260504233024 78 102 6.1 13.9 0.00 0.00 0.00 67 1007.2
20260504232509 78 135 4.3 14.8 0.00 0.00 0.00 67 1007.3
20260504232012 78 210 3.5 14.8 0.00 0.00 0.00 67 1007.2
20260504231513 78 264 5.2 13.9 0.00 0.00 0.00 67 1007.4
20260504231005 78 152 6.1 11.3 0.00 0.00 0.00 67 1007.3
20260504230504 78 105 2.6 11.3 0.00 0.00 0.00 67 1007.3
20260504230017 78 211 3.5 12.2 0.00 0.00 0.00 67 1007.4
20260504225514 78 198 4.3 13.9 0.00 0.00 0.00 66 1007.5
20260504225008 79 207 3.5 13.9 0.00 0.00 0.00 66 1007.5
20260504224521 79 241 5.2 13.0 0.00 0.00 0.00 65 1007.6
20260504224008 79 136 4.3 13.9 0.00 0.00 0.00 64 1007.7
20260504223508 80 161 5.2 14.8 0.00 0.00 0.00 64 1007.7
20260504223026 80 143 6.1 14.8 0.00 0.00 0.00 64 1007.7
20260504222508 80 205 7.0 14.8 0.00 0.00 0.00 64 1007.7
20260504222010 79 188 2.6 14.8 0.00 0.00 0.00 66 1007.6
20260504221528 79 100 6.1 15.6 0.00 0.00 0.00 66 1007.6
20260504221011 79 126 6.1 15.6 0.00 0.00 0.00 66 1007.6
20260504220513 79 202 5.2 15.6 0.00 0.00 0.00 65 1007.7
20260504220015 79 126 6.1 14.8 0.00 0.00 0.00 65 1007.7
20260504215507 80 156 5.2 12.2 0.00 0.00 0.00 65 1007.9
20260504215008 80 76 4.3 12.2 0.00 0.00 0.00 66 1007.9
20260504214518 79 116 3.5 15.6 0.00 0.00 0.00 66 1008.0
20260504214007 79 222 7.0 15.6 0.00 0.00 0.00 64 1008.0
20260504213507 80 203 6.1 15.6 0.00 0.00 0.00 64 1008.0
20260504213023 80 208 4.3 15.6 0.00 0.00 0.00 65 1008.1
20260504212508 80 188 5.2 13.9 0.00 0.00 0.00 64 1008.2
20260504212009 79 207 7.8 17.4 0.00 0.00 0.00 64 1008.3
20260504211506 80 58 7.0 17.4 0.00 0.00 0.00 64 1008.4
20260504211003 80 193 7.8 13.9 0.00 0.00 0.00 63 1008.6
20260504210506 80 149 4.3 13.9 0.00 0.00 0.00 64 1008.6
20260504210011 80 128 5.2 13.9 0.00 0.00 0.00 64 1008.9
20260504205509 81 207 6.1 13.0 0.00 0.00 0.00 62 1008.8
20260504205007 81 212 5.2 12.2 0.00 0.00 0.00 62 1009.1
20260504204516 81 259 4.3 12.2 0.00 0.00 0.00 63 1009.0
20260504204007 81 184 5.2 12.2 0.00 0.00 0.00 63 1009.1
20260504203512 81 221 5.2 12.2 0.00 0.00 0.00 62 1009.2
20260504203004 81 188 6.1 10.4 0.00 0.00 0.00 62 1009.5
20260504202504 81 145 3.5 12.2 0.00 0.00 0.00 62 1009.5
20260504202004 81 233 5.2 12.2 0.00 0.00 0.00 63 1009.6
20260504201507 81 198 5.2 13.9 0.00 0.00 0.00 63 1009.7
20260504201005 81 191 7.0 14.8 0.00 0.00 0.00 61 1009.7
20260504200503 81 97 2.6 14.8 0.00 0.00 0.00 62 1009.9
20260504200011 81 268 5.2 13.9 0.00 0.00 0.00 62 1010.1
20260504195507 80 143 3.5 13.9 0.00 0.00 0.00 64 1010.3
20260504195009 80 140 5.2 13.9 0.00 0.00 0.00 61 1010.4
20260504194512 81 234 5.2 13.9 0.00 0.00 0.00 63 1010.4
20260504194006 80 203 3.5 10.4 0.00 0.00 0.00 63 1010.3
20260504193509 80 113 4.3 13.0 0.00 0.00 0.00 64 1010.3